Bodensee (Kressbronn): 6,1°C  -  Teich der Wetterzentrale Bad Schussenried: 5,6°C |  Schneehöhe Kreuzthal-Steinberg (930 m ü. NN): 8 cm   
01.04.2020Höhe
ü. NN
ZeitTemperatur (°C)Nieder-
schlag
Luft-
feuchte
Luft-
druck
Wind
StationaktuellMinimumMaximumaktuellMaximum
Aldingen654 m07:46-5,4-5,7 (08:00)-0,3 (16:02)0,0 l/m²84%1023,30,0 km/h (0 Bft) W29,6 km/h (5 Bft) W (14:48)
Allmendingen541 m07:45-6,3-6,7 (07:05)-2,1 (15:10)0,0 l/m²89%1022,93,2 km/h (1 Bft) O-SO35,4 km/h (5 Bft) O (15:35)
Altshausen574 m07:45-3,7-4,1 (06:33)-1,1 (00:16)0,0 l/m²67%1020,512,9 km/h (3 Bft) N12,9 km/h (3 Bft) N-NO (07:34)
Amstetten-Reutti663 m07:45-4,5-4,7 (07:05)-1,5 (16:55)0,0 l/m²87%1022,61,6 km/h (1 Bft) W-SW48,3 km/h (6 Bft) W (15:55)
Amtzell-Grenis677 m07:45-2,1-4,1 (06:05)-1,4 (00:00)0,0 l/m²57%1022,66,4 km/h (2 Bft) O12,9 km/h (3 Bft) N (06:45)
Aulendorf570 m07:45-2,8-3,2 (07:05)-0,5 (00:00)0,0 l/m²72%1021,511,3 km/h (2 Bft) NO17,7 km/h (3 Bft) O-NO (07:06)
Bad Krozingen233 m07:45-1,2-2,3 (06:50)3,7 (16:05)0,0 l/m²75%1023,65,2 km/h (1 Bft) S-SW38,1 km/h (5 Bft) N (17:05)
Bad Saulgau595 m07:45-4,6-5,2 (08:00)-1,9 (15:00)0,0 l/m²89%1021,40,0 km/h (0 Bft) S-SO25,7 km/h (4 Bft) S (11:35)
Bad Saulgau, Mannsgrab588 m07:48-3,8-6,1 (05:34)-1,7 (00:17)0,0 l/m²84%1023,80,0 km/h (0 Bft) N-NO0,0 km/h (0 Bft) N (00:00)
Bad Saulgau-Lampertsweiler627 m07:45-4,4-4,8 (06:15)0,2 (00:00)0,0 l/m²83%1024,56,4 km/h (2 Bft) N-NW22,5 km/h (4 Bft) N-NW (01:15)
Bad Schussenried572 m07:45-3,7-4,4 (07:30)-1,1 (00:00)0,0 l/m²89%1021,00,0 km/h (0 Bft) NO9,7 km/h (2 Bft) NO (03:15)
Bergatreute615 m07:40-3,6-4,1 (07:20)0,0 (00:00)0,0 l/m²88%1021,58,0 km/h (2 Bft) NO17,7 km/h (3 Bft) O (01:55)
Biberach (Riss), Boehringer533 m07:50-3,9-4,4 (07:00)-1,1 (00:30)0,0 l/m²90%1021,86,5 km/h (2 Bft) N11,9 km/h (3 Bft) N (03:00)
Biberach (Riss), Realschule553 m07:45-4,1-4,3 (07:15)-0,3 (00:00)0,0 l/m²88%1023,58,0 km/h (2 Bft) NW12,9 km/h (3 Bft) N (06:05)
Burgrieden523 m07:45-4,3-4,4 (07:30)-0,4 (00:00)0,0 l/m²83%1022,61,6 km/h (1 Bft) NO11,3 km/h (2 Bft) O-NO (07:40)
Burgrieden-Hochstetten510 m07:45-4,3-4,8 (08:00)-0,9 (15:40)0,0 l/m²89%1023,04,8 km/h (1 Bft) N-NO25,7 km/h (4 Bft) NO (12:55)
Ebersbach579 m07:45-3,5-4,0 (07:15)-0,1 (00:00)0,0 l/m²87%1023,08,0 km/h (2 Bft) N-NW16,1 km/h (3 Bft) NO (01:25)
Ebersbach-Boos605 m07:45-4,1-4,7 (07:15)-0,1 (00:00)0,0 l/m²90%1022,816,1 km/h (3 Bft) NO22,5 km/h (4 Bft) O (01:00)
Ebersbach-Menzenweiler661 m07:45-3,7-3,9 (06:20)-0,6 (00:00)0,0 l/m²88%1022,716,1 km/h (3 Bft) NO24,1 km/h (4 Bft) O-NO (01:05)
Ehingen535 m01:10-2,5-2,5 (01:10)-1,3 (00:05)0,0 l/m²70%1025,40,0 km/h (0 Bft) N-NO5,0 km/h (1 Bft) N-NO (00:15)
Erlenmoos645 m07:45-4,5-4,5 (07:40)-0,9 (00:00)0,0 l/m²87%1022,51,6 km/h (1 Bft) NO12,9 km/h (3 Bft) O-NO (01:35)
Ertingen569 m07:45-3,2-3,7 (06:55)-0,6 (00:00)0,0 l/m²85%1022,78,0 km/h (2 Bft) N16,1 km/h (3 Bft) N-NO (04:10)
Friedrichshafen405 m07:45-1,4-1,9 (07:00)0,9 (13:30)0,0 l/m²80%1022,612,9 km/h (3 Bft) N27,4 km/h (4 Bft) NO (15:10)
Günzburg443 m07:45-4,6-5,3 (07:20)-1,1 (00:00)0,0 l/m²89%1020,80,0 km/h (0 Bft) NO0,0 km/h (0 Bft) NO (00:00)
Hochdorf-Appendorf537 m07:45-5,1-6,3 (07:30)-1,7 (00:15)0,0 l/m²68%1022,50,0 km/h (0 Bft) N-NW14,5 km/h (3 Bft) N-NW (03:20)
Höchsten802 m07:45-4,2-4,7 (07:10)-1,4 (00:00)0,0 l/m²85%1020,417,7 km/h (3 Bft) NO25,7 km/h (4 Bft) NO (02:45)
Horgenzell618 m07:45-1,9-1,9 (03:45)-0,6 (00:05)0,0 l/m²76%1020,14,8 km/h (1 Bft) N-NO19,3 km/h (3 Bft) N-NO (00:50)
Hoßkirch632 m07:45-6,3-6,7 (07:25)-1,0 (00:15)0,0 l/m²90%1021,54,8 km/h (1 Bft) O-SO14,5 km/h (3 Bft) O-NO (00:20)
Isny, Am Dreifingerbach695 m07:45-3,8-6,2 (06:25)0,1 (01:00)0,0 l/m²85%1021,50,0 km/h (0 Bft) NW14,5 km/h (3 Bft) O-NO (01:05)
Isny, Weidachweg706 m07:45-4,7-5,3 (07:10)0,3 (00:25)0,0 l/m²77%1023,80,0 km/h (0 Bft) W12,9 km/h (3 Bft) W (00:10)
Kappel-Grafenhausen163 m07:40-1,9-2,1 (07:10)3,3 (14:55)0,0 l/m²81%1021,36,4 km/h (2 Bft) N30,6 km/h (5 Bft) N-NO (16:55)
Kißlegg-Staibshof709 m07:45-3,4-3,8 (07:10)-0,9 (00:00)0,0 l/m²82%1022,20,0 km/h (0 Bft) N-NO14,5 km/h (3 Bft) O (01:50)
Kressbronn398 m07:48-2,8-2,8 (07:20)1,4 (00:00)0,0 l/m²81%1021,30,0 km/h (0 Bft) NO22,5 km/h (4 Bft) NO (00:54)
Kreuzthal-Steinberg-Alpe930 m07:40-4,2-4,9 (06:50)-2,5 (00:00)0,0 l/m²87%1022,02,2 km/h (1 Bft) O-NO22,0 km/h (4 Bft) W-NW (00:10)
Kreuzthal-Steinberggipfel1040 m07:40-2,9-4,0 (02:20)-2,6 (07:40)-70%1022,09,7 km/h (2 Bft) O-SO37,1 km/h (5 Bft) O-SO (00:10)
Kristberg im Montafon (AT)1425 m07:45-5,9-6,6 (04:51)-5,3 (00:40)0,0 l/m²53%1026,40,0 km/h (0 Bft) N10,1 km/h (2 Bft) NO (01:47)
Laupheim500 m07:45-3,3-4,0 (06:35)0,0 (00:00)0,0 l/m²83%1022,13,2 km/h (1 Bft) NO9,7 km/h (2 Bft) O-SO (00:20)
Leutkirch-Heggelbach670 m07:45-4,8-4,9 (07:00)-2,6 (00:30)0,0 l/m²88%1021,50,0 km/h (0 Bft) N8,0 km/h (2 Bft) N-NO (03:30)
Lindau-Insel420 m07:45-1,3-1,8 (07:25)1,8 (14:55)0,0 l/m²74%1021,74,8 km/h (1 Bft) O-NO29,0 km/h (5 Bft) NO (17:05)
Lindau-Stadt412 m07:45-1,9-2,4 (08:00)1,2 (14:55)0,0 l/m²75%1021,84,8 km/h (1 Bft) N-NO33,8 km/h (5 Bft) N-NO (15:40)
Maierhöfen im Allgäu733 m07:45-5,4-5,9 (07:30)-1,2 (01:35)0,0 l/m²85%1021,80,0 km/h (0 Bft) NW25,7 km/h (4 Bft) O-SO (02:05)
Maselheim543 m07:45-5,2-5,4 (08:00)-2,3 (13:20)0,0 l/m²88%1023,00,0 km/h (0 Bft) N24,1 km/h (4 Bft) O-NO (15:20)
Maselheim-Sulmingen548 m07:45-5,3-5,7 (07:15)-2,2 (15:15)0,0 l/m²90%1024,20,0 km/h (0 Bft) NW20,9 km/h (4 Bft) N-NO (12:15)
Mietingen-Baltringen528 m07:45-4,6-5,0 (06:35)-1,3 (00:45)0,0 l/m²87%1024,50,0 km/h (0 Bft) O4,8 km/h (1 Bft) N-NO (01:20)
Mindelheim-Apfeltrach620 m07:46-6,2-6,3 (07:40)-2,7 (00:00)0,0 l/m²89%1024,00,0 km/h (0 Bft) NO0,0 km/h (0 Bft) O-NO (00:00)
Mittelbiberach577 m07:46-4,0-4,6 (06:56)-1,0 (00:16)0,0 l/m²84%1023,83,2 km/h (1 Bft) NO12,8 km/h (3 Bft) NO (05:56)
Neresheim552 m07:00-7,3-7,3 (07:00)-2,0 (00:00)0,0 l/m²91%1021,70,0 km/h (0 Bft) O4,0 km/h (1 Bft) NO (01:00)
Neukirch570 m07:45-3,1-3,4 (07:15)-0,9 (14:35)0,0 l/m²81%1021,96,4 km/h (2 Bft) N-NO37,0 km/h (5 Bft) N-NO (11:55)
Ochsenhausen, Birkenstraße613 m07:45-5,7-5,7 (08:00)-2,2 (12:50)0,0 l/m²83%1023,10,0 km/h (0 Bft) O-SO1,6 km/h (1 Bft) SW (08:00)
Ochsenhausen, Unt. Wiesen575 m07:45-5,4-5,7 (06:15)-2,4 (00:00)0,0 l/m²88%1024,30,0 km/h (0 Bft) NO4,8 km/h (1 Bft) NO (00:00)
Opfenbach-Göritz561 m07:46-5,4-5,8 (07:19)-2,8 (00:00)0,0 l/m²80%1019,90,0 km/h (0 Bft) N-NO6,5 km/h (2 Bft) O-NO (00:18)
Ostrach619 m07:45-3,4-3,8 (04:15)-0,6 (00:00)0,0 l/m²90%1020,96,4 km/h (2 Bft) N-NW12,9 km/h (3 Bft) N-NW (06:30)
Ravensburg, Goethestraße428 m07:45-2,2-2,2 (07:20)1,3 (00:00)0,0 l/m²82%1021,614,5 km/h (3 Bft) N-NO17,7 km/h (3 Bft) NO (06:45)
Ravensburg-Wernsreute511 m07:45-2,7-3,4 (07:00)0,0 (15:50)0,0 l/m²83%1024,617,7 km/h (3 Bft) N-NW35,4 km/h (5 Bft) N-NO (11:45)
Reichenbach an der Fils343 m07:45-2,8-2,8 (07:40)1,0 (00:00)0,0 l/m²78%1025,21,6 km/h (1 Bft) SO12,9 km/h (3 Bft) O-SO (05:10)
Riedlingen530 m07:45-3,1-3,6 (07:05)-1,0 (00:00)0,0 l/m²81%1022,90,0 km/h (0 Bft) O-NO0,0 km/h (0 Bft) N (00:00)
Rißtissen489 m07:45-3,3-3,5 (07:10)-0,2 (00:00)0,0 l/m²86%1020,50,0 km/h (0 Bft) O-NO8,0 km/h (2 Bft) O-NO (03:30)
Rottweil-Hausen681 m07:49-4,3-4,7 (06:55)-1,9 (00:00)0,0 l/m²84%1023,93,2 km/h (1 Bft) SW9,7 km/h (2 Bft) S-SW (07:27)
Schemmerhofen520 m07:45-3,1-3,3 (07:35)2,7 (00:00)0,0 l/m²87%1021,84,8 km/h (1 Bft) NO6,4 km/h (2 Bft) NO (07:35)
Silbertal im Montafon (AT)884 m07:46-4,3-4,7 (07:15)-1,6 (00:01)0,0 l/m²85%1026,10,0 km/h (0 Bft) O-NO0,0 km/h (0 Bft) O-NO (00:00)
Tettnang466 m07:49-2,3-2,4 (07:30)1,0 (00:00)0,0 l/m²77%1021,81,4 km/h (1 Bft) W-NW16,2 km/h (3 Bft) O-SO (01:07)
Tuttlingen648 m07:41-4,0-4,5 (06:31)-2,1 (00:01)0,0 l/m²78%1023,20,0 km/h (0 Bft) N-NO5,2 km/h (1 Bft) W-SW (03:26)
Tuttlingen, Möhringer-Vorstadt711 m07:45-5,1-5,1 (08:00)-2,4 (16:05)0,0 l/m²84%1022,71,6 km/h (1 Bft) NO25,7 km/h (4 Bft) N-NW (12:35)
Ummendorf547 m07:45-3,9-5,1 (07:20)-0,7 (00:10)0,0 l/m²69%1023,70,0 km/h (0 Bft) O-NO16,1 km/h (3 Bft) O (01:05)
Ummendorf-Fischbach558 m07:45-4,9-5,4 (06:15)-1,9 (01:25)0,0 l/m²70%1023,63,2 km/h (1 Bft) NO6,4 km/h (2 Bft) O-NO (07:15)
Waldburg707 m07:45-3,1-3,5 (06:50)-0,8 (00:00)0,0 l/m²78%1021,44,8 km/h (1 Bft) N19,3 km/h (3 Bft) N (02:35)
Waltenhofen im Allgäu720 m07:45-7,7-7,9 (07:15)-2,2 (01:05)0,0 l/m²90%1022,20,0 km/h (0 Bft) W17,7 km/h (3 Bft) W (11:50)
Wangen, Südring548 m07:46-3,1-4,2 (06:51)-0,3 (00:00)0,0 l/m²81%1021,56,5 km/h (2 Bft) O-NO13,0 km/h (3 Bft) NO (01:25)
Warthausen-Birkenhard581 m07:49-4,1-4,4 (06:32)-1,2 (00:00)0,0 l/m²86%1023,510,1 km/h (2 Bft) N-NO13,7 km/h (3 Bft) NO (06:13)
Winterlingen785 m07:45-4,7-5,6 (06:30)-2,8 (01:00)0,0 l/m²79%1021,81,4 km/h (1 Bft) N3,6 km/h (1 Bft) NO (00:55)

niederschlagsdatenbank | info | login - erfassung

Sollten Sie Interesse haben, an der Niederschlagsdatenbank teilzunehmen, finden Sie > hier < weitere Informationen.
Datum: . . Kalender
Anmerkung:0,0 = nicht messbarer Niederschlag
 -  = kein Niederschlag
 k  = kumulierter Niederschlag

< 07.06.201909.06.2019 >


Niederschlagswerte vom 08.06.2019    -    derzeit 112 Stationen

Die Niederschlagswerte des gewählten Tages lassen sich durch Klicken auf das Datum sortieren.
Die Angaben sind in l/m².

Station05.06.06.06.07.06.08.06.09.06.10.06.11.06.Bemerkung 08.06.
Aichstetten Ulmenstraße 7-------
Aichstetten-Nestbaum Nestbaum-2,0---19,0-
Albbruck Furmisstr. 18-0,03,5-6,228,81,8
Sommersonne +25°C Nachts +8°C
Allmendingen Querqueviller Ring 6-0,40,5-3,727,01,2
Amstetten-Reutti Gassenäcker 13-0,4--0,828,20,2
Aulendorf Steinenbacher Weg 33----2,524,02,5
Aulendorf-Blönried Heuweg 321,0----27,53,2
Bad Bellingen Rheinstraße 76-------
Bad Buchau Hanfweiher 13,0---6,028,55,0
Bad Saulgau Walserweg0,00,0--3,532,52,5
Bad Saulgau-Hochberg Lampertsweiler Straße 120,20,1--2,536,51,8
Bad Schussenried Konradstraße0,10,10,1-1,722,81,9
Regen Nieselregen
Bad Schussenried Lortzingstrasse----2,022,02,5
Bad Schussenried Klosterstraße----1,225,52,5
Bad Schussenried Theodor-Storm-Strasse-------
Bad Schussenried-Hopferbach Unterer Öschweg 16/10,00,0--3,028,03,0
Bad Schussenried-Lufthütte Hauptgasse 17----1,023,02,0
Bad Schussenried-Sattenbeuren Ortsstraße 7-------
Bad Schussenried-Schwaigfurt Schwaigfurt 2----2,021,5-
Bad Waldsee-Haisterkirch Zur Spitzenkapelle 1-0,5--0,720,5-
+12/+20°C, nahezu uneingeschränkter Sonnenschein
Bad Wurzach-Seibranz Kimpflerhof 2 -2,0--1,718,01,0
Baienfurt Untere Bergstrasse 7----1,021,05,0
Balzheim Hinterm Liess 19-0,20,2-1,021,02,0
Berg-Kleintobel Kleintobel2,30,2--1,326,74,7
Biberach Amriswilstrasse----2,026,10,0
Biberach Strölinweg----2,0--
Biberach Erlenweg----2,019,0-
Biberach Neue Heimat 5----2,518,02,0
Biberach Mittelbergstraße 9-0,00,0-1,520,0-
Biberach Auf dem Lindele-------
Biberach-Bergerhausen Löcherstr.1----1,519,50,5
Bierstetten Schloßbühl 61,21,30,3-2,329,32,3
Blaubeuren-Pappelau Sotzenhauserstr.7----2,028,01,0
Bühlertal Wolfinstraße 16-3,0---9,023,0
Dettingen a. d. Iller Schleifweg 4-------
Dornstadt-Tomerdingen Maienweg 9-0,30,3-0,639,0-
Dürnau Dorfäckerweg 5----4,037,02,0
Eberhardzell Lilienweg-0,20,1-1,018,91,2
Ebersbach-Roßwälden Appenwiesen-0,02,1-1,418,51,0
Ehingen Rosenstraße-0,1--2,027,80,8
Ehingen Zanderstraße----2,032,3-
Ehingen Schlaufenbühl--0,30,32,431,60,6
Regen
Ehingen Schillerstraße--0,0-2,929,51,7
Ehingen-Herbertshofen Tobelweg 9-------
Eislingen Albstraße 125-0,50,0-1,625,10,2
Erbach-Bach Hauptstraße 24----3,026,00,0
Erlenmoos Haldenweg 150,00,6--0,822,30,4
Füramoos Hungersberg 10,00,0--0,08,212,4
Gutenzell Kleinser Berg 1----0,115,07,0
Gutenzell-Hürbel Bei der Sägmühle 1-----20,51,0
Herbertingen Drosselweg-0,0--5,039,54,0
Die Wolken waren schnell verschwunden.Danach sonnig bei Temperaturen u [weiterlesen...]
Herbertingen Hirschstrasse----9,029,05,0
Hochdorf-Schweinhausen Lindenweg 2----1,720,30,7
Hohentengen-Bremen Bremer Halde 4----7,533,05,0
Horgenzell-Ringgenweiler Ringgenweiler 620-0,0--2,422,46,2
Hüttisheim Ulmer Weg 2---0,0 k2,522,51,0
Illerkirchberg Mahdauweg 20-0,00,2-2,722,80,2
Illerrieden-Wangen Am Muckenberg 12----0,521,51,0
Immenstaad Stockwiesen 10-------
Inzigkofen Butzenweg 1-0,0--3,027,57,5
Isny Am Dreifingerbach 39-1,2--5,622,21,4
Kirchberg Rosenstr. 7----1,022,5-
Kreuzthal-Steinberg-Alpe Im Kreuzbachthal 85-2,40,1-5,726,61,8
Langenau Wasserstr. 54-1-0,00,0-2,019,01,0
Langenenslingen Schattenweiler Str. 18-0,20,0-2,927,53,6
Regen
Leutkirch Unterer Auenweg 250,01,2--1,317,00,2
Leutkirch Nachtigallenweg 280,22,0--2,521,01,0
Leutkirch-Adrazhofen Bergstraße 20---23,0 k3,020,01,0
Merklingen Millergasse 9-------
Mietingen Seerosenweg 10-0,0--3,018,04,0
Mietingen-Walpertshofen Bussenweg 31----4,019,02,0
Mittelbiberach-Reute Rindenmooser Straße 2-0,1--1,522,21,5
Moosburg Käserweg 50,00,0--4,542,02,2
Vormittags vereinzelt wolkig, im weiteren Verlauf sonnig und warm. Tei [weiterlesen...]
Münsingen-Rietheim In der Lise 20-0,0--2,021,42,6
Neresheim Alfred-Delp-Straße 8-0,30,2-0,012,60,0
Oberdischingen Normannenstraße 7-0,00,0-2,724,80,4
Ochsenhausen Ehrensberger Weg 50,00,40,0-0,120,50,1
Öpfingen Hauptstraße 99-0,10,0-3,029,00,5
Ostrach Uhlandweg-0,00,0-2,540,05,0
Pfaffenhofen-Kadeltshofen Mühlbachstraße 4-0,0--3,022,00,0
Pfullendorf Am Schweizersbild -----42,94,6
Rangendingen Donaustraße 19----2,034,0-
Ravensburg Bleicherstraße1,2---1,826,55,1
Ravensburg-Schmalegg St.-Magdalena-Ring 42----1,125,04,9
Ravensburg-Wernsreute Wernsreute 25-----25,48,4
Ravensburg-Weststadt Karl-Erb-Ring 1420,2---2,328,28,0
Regensburg Orleansstraße 3-------
Riedhausen Blütenweg 13----3,646,88,8
Temp. +8,7°C / +22,6°C, Windböen SW 32,2 km/h
Riedlingen Berliner Str. 41-0,0--2,333,01,0
Riedlingen-Neufra Panoramaweg-----30,04,0
Riedlingen-Neufra Riedlinger Strasse0,00,00,00,03,830,02,8
+ 14,8 Grad, 63 % LF, trocken, bewölkt,
Schelklingen-Gundershofen Schwarzer-Straße 14----2,033,01,5
Temp. zw. +4,8°C und +34,5°C. Sonne und ein paar lockere Wolken bei [weiterlesen...]
Schemmerberg Drosselweg 9----4,021,2-
Schwörstadt Schulstrasse 19--2,63,68,824,02,6
Regen
Seekirch Haldenberg 7----4,029,03,0
Sigmaringendorf Weingartenstraße 7----2,129,02,8
Tuttlingen Möhringerstraße 110,0-3,4-2,841,2-
Ulm Eberhardtstraße 75-0,1--3,221,50,8
Ummendorf Tulpenweg-0,0--1,522,00,5
Ummendorf Friedrich-Schiller-Str.---0,00,220,00,0
Regen
Uttenweiler-Ahlen Seekircher Straße 80,0-0,0-3,228,51,5
Vöhringen (Schwarzwald) Drosselweg 3----4,045,08,0
Waldburg Kastanienweg11----1,0--
Wangen-Bergerhöhe Berg 21,00,80,0-1,623,02,8
Warthausen An der Schloßhalde --0,0-3,316,70,0
Warthausen Schwabenwiesen ----2,17,812,0
Warthausen-Barabein Barabein 20----4,018,01,0
Weingarten Laurastraße0,11,00,0-0,222,01,0
+ 10,0 ° C um 5.00 Uhr, 969 hPa,
Weingarten Hoyerstraße-------
Weingarten Marienstraße0,20,5--0,524,55,0
Wolfegg-Veesers Veesers 1----1,821,5-
Wolpertswende Aulendorfer Str. 17----1,222,92,7

Stillgelegte Niederschlagsstationen    -    derzeit 49 Stationen

StationLetzte Meldung05.06.06.06.07.06.08.06.09.06.10.06.11.06.Bemerkung 08.06.
Allmannsweiler Eggatsweilerstr.2802.09.2014-------
Aulendorf-Rugetsweiler Erikaweg 325.07.2013-------
Aulendorf-Zollenreute Imterstraße 1209.02.2019-------
Bad Saulgau Willi-Burth-Straße19.09.2011-------
Bad Saulgau Eichendorffweg28.03.2013-------
Bad Saulgau Seewattenstraße 12815.01.2014-------
Bad Saulgau-Lampertsweiler Valentinstr. 2618.02.2015-------
Bad Schussenried-Steinhausen Drosselgasse 4/126.09.2012-------
Bad Waldsee-Michelwinnanden Michelberg 531.12.2014-------
Bad Waldsee-Osterhofen Hochwaldgasse 406.03.2015-------
Bad Waldsee-Steinach Hofraingasse 1510.11.2013-------
Bad Wurzach-Dietmanns Postweg 519.01.2019-------
Bad Wurzach-Haidgau Wengener Straße 507.10.2012-------
Bad Wurzach-Ziegelbach Ziegelbach-Greut 507.11.2014-------
Bergatreute Bolanden 113.02.2012-------
Betzenweiler Offinger Straße 505.01.2017-------
Burgrieden Am Nonnenberg 328.10.2013-------
Burgrieden-Rot Schmiedgasse 518.09.2013-------
Eberhardzell Schillerstraße05.07.2010-------
Ehingen Am Elzengraben17.06.2016-------
Gammertingen Schillerstraße 2216.01.2016-------
Griesingen Blumenstraße 906.10.2015-------
Günzburg Erlenbadweg 34 1/231.12.2010-------
Hoßkirch Kirchstraße 805.01.2018-------
Ingoldingen-Grodt Ingoldinger Weg 1919.11.2016-------
Kisslegg Kirchmoosstraße02.05.2011-------
Krauchenwies-Hausen Rosenrain 123.11.2013-------
Kressbronn Irisstraße 410.03.2010-------
Leutkirch-Ottmannshofen Spitalriedstraße 527.07.2012-------
Leutkirch-Rotis Rotis 5/208.05.2016-------
Leutkirch-Wuchzenhofen Untere Kirchstraße 18/119.09.2016-------
Mietingen Hangweg 1530.12.2017-------
Mössingen-Bästenhardt Weissdornweg 721.07.2014-------
Ostrach Heiligenberger Straße19.08.2013-------
Pfullendorf Ringstraße 18.03.2012-------
Ravensburg Olgastraße30.10.2016-------
Seltmans Amselweg 2209.04.2013-------
Stuttgart-Bad Cannstatt Beuthener Str. 6703.02.2013-------
Stuttgart-Möhringen Glashütter Weg 1023.04.2017-------
Stuttgart-Rohr Hirschsprung 307.11.2012-------
Talheim Im Schecken 2121.08.2016-------
Tannheim Eggmannstr. 42 22.10.2017-------
Tettnang-Ramsbach Jahnstr. 24/126.03.2011-------
Tuttlingen-Möhringen Belchenstraße01.01.2015-------
Ummendorf Bergstraße23.10.2017-------
Vogt Mühlwies 1822.05.2015-------
Wangen-Atzenberg Keplerweg 324.02.2019-------
Weingarten Bischof-Sproll-Straße30.06.2011-------
Wilhelmsdorf Riedhauser Straße 28.10.2012-------
Wilhelmsdorf Seefeld20.08.2013-------
Wurmlingen An der Steig 3014.10.2016-------
Die Niederschlagswerte des gewählten Tages lassen sich durch Klicken auf das Datum sortieren.
Die Angaben sind in l/m².

Wetterbeobachtungen Legende:

  • Regen
  • Nieselregen
  • Schneeregen
  • Schnee
  • Graupel
  • Eiskörner
  • Hagel
  • Bodennebel
  • Gewitter
  • Nebelnässe
  • Schneegriesel

Grafische Darstellung der Tagesniederschläge vom 08.06.2019

< 07.06.201909.06.2019 >Monats- und Jahresniederschlag


 
wetterstationen
wetterstationen
- derzeit 83 Stationen
niederschlagsdatenbank
wetterstationen
- kartographische Darstellung
niederschlagsdatenbank
niederschlagsstationen
- derzeit 112 Stationen
niederschlagsdatenbank
niederschlagsstationen
- kartographische Darstellung
 
  treffpunkt & service
--- Anzeigen --------------------------------
zugriffe:
insgesamt: 46.623.984
aktueller monat: 1.173
heute: 1.173
momentan online: 56
 
 
monatshöchstwert: 653.625
vorheriger monat: 364.213
gestern: 13.565
tageshöchstwert: 57.073
 
wetterwarte süd
 
konradstraße 3
info@wetterwarte-sued.com
roland roth
 
88427 bad schussenried